Voltar ao catálogo

STARLINK-36645

AtivoComunicaçõesSSO
NORAD 67707·PAYLOAD·🇺🇸 United States

Lançado Feb 7, 2026 de Vandenberg Space Force Base

Loading…

Próximas Passagens (próximas 24 horas)

TLE

AtualizadoSource: CelesTrak SupGP

Época: Sep 14, 2026, 21:02 UTC

1 67707C 26025Q   26257.87687500 -.00018116  00000+0 -56217-3 0  2574
2 67707  97.2859   7.9280 0001164 104.7207  77.5136 15.33458936    15

Acompanhe STARLINK-36645 em tempo real com AllMySat

Download on the App Store